Location: Caltech
(34.1382°N, 118.1253°W)
Time: 17:17:05
(UTC-07:00)

Cosmos 1943 Rocket - Visible Passes

Search period start: 24 September 2016 00:00
Search period end: 04 October 2016 00:00
Orbit: 811 x 845 km, 71.0° (Epoch: 24 September)

Date Brightness Start Highest point End Pass type
(mag) Time Alt. Az. Time Alt. Az. Time Alt. Az.
24 Sep 5.1 22:35:32 10° NNW 22:35:36 10° NNW 22:35:36 10° NNW visible
25 Sep 4.8 22:16:24 10° NNW 22:16:56 13° NNW 22:16:56 13° NNW visible
26 Sep 4.6 21:57:16 10° NNW 21:58:18 16° NNW 21:58:18 16° NNW visible
27 Sep 4.3 21:38:10 10° NNW 21:39:43 19° N 21:39:43 19° N visible
28 Sep 3.9 21:19:04 10° N 21:21:10 23° N 21:21:10 23° N visible
29 Sep 3.6 21:00:00 10° N 21:02:41 27° N 21:02:41 27° N visible
30 Sep 3.3 20:40:57 10° N 20:44:17 30° NNE 20:44:17 30° NNE visible
30 Sep 5.0 22:25:20 10° NW 22:25:49 12° NW 22:25:49 12° NW visible
01 Oct 3.1 20:21:54 10° N 20:25:56 32° NE 20:25:56 32° NE visible
01 Oct 4.7 22:05:57 10° NW 22:07:28 17° WNW 22:07:28 17° WNW visible
02 Oct 3.0 20:02:54 10° N 20:07:40 30° ENE 20:07:40 30° ENE visible
02 Oct 4.2 21:46:36 10° NW 21:49:14 23° WNW 21:49:14 23° WNW visible
03 Oct 3.1 19:43:55 10° N 19:48:35 26° ENE 19:49:32 25° ENE visible
03 Oct 3.7 21:27:17 10° NW 21:31:05 32° WNW 21:31:05 32° WNW visible
